CZ-6A DEB, 60678

Orbit data source: Space-Track

CZ-6A DEB, 60678 is space debris in LEO originally from a launch on Tue, 06 Aug 2024 UTC launched from the Taiyaun Space Center, China (TSC). Debris objects in space refer to the collection of defunct objects orbiting the Earth. Examples of debris include non-operational satellites, rocket bodies, and fragments generated from explosions, collisions, or faulty payload assembly.

Loading next visibility...
Identifier
60678, 2024-140CF
Orbit
LEO
Country
Flag of CNCN / PRC
Related business
Manufacturer
SAST
Mission
Spacecraft
Bus & Motor
Unknown
Mass
Unknown
Launch date (UTC)
2024-08-06 (2 years ago)
Launch vehicle
Unknown
Launch site
Taiyaun Space Center, China (TSC)
Object type
Payload
Rocket body
Debris
Shape & HBR
Unknown shape, 0.3 m
Radar Cross Section
Medium (>0.1 m² and <1 m²)

Expand to show TLE details & history
Last TLE update: 8 hours ago

TLE from 8 hours ago
0 CZ-6A DEB
1 60678U 24140CF  26118.82287808  .00000425  00000-0  11789-3 0  9999
2 60678  88.9035 270.3632 0075026 115.8409 245.0557 14.42970242 90500
Epoch: 2026-04-28T19:44Z
TLE epoch observation values (Epoch: 2026-04-28T19:44:56.666Z)
Latitude
0.00005°
Longitude
117.33442°
Altitude
774.671 km
Speed
7.455 km/s
True Right ascension
18h 01m 27s
True Declination
0° 00' 00"
Sunlit
Object was in full shadow at epoch
Visualization orbit readout
Latitude
Unknown
Longitude
Unknown
Altitude
Unknown
Speed
Unknown
Apparent Right ascension
Unknown
Apparent Declination
Unknown
Sunlit
N/A
Visualization observer readout
Local Sidereal Time
11:00:25
Azimuth
Unknown
Elevation
Unknown
Doppler factor
Unknown
Orbital elements
Apogee altitude
799.067 km
Perigee altitude
692.174 km
Semi-major axis
7,123.757 km
Eccentricity
0.0075
Inclination
88.9035°
RAAN
270.3632°
Arg. of periapsis
115.8409°
True anomaly
244.27926°
Mean anomaly
245.0557°
Eccentric anomaly
244.66717°
Mean motion
3.60977 °/min
Orbital period
99.73 mins
BSTAR
0.00011789
Loading maneuver chart data...
Computing Atmospheric mass density...
Loading historical data...
Loading historical data...
Loading historical data...
Loading historical data...
Loading historical data...
Loading historical data...
Loading historical data...

Documentation

Showing up to 5 results
|